Regional Weather Roundup
Issued by NWS

Home | Current Version | Previous Version | Graphics & Text | Print | Product List | Glossary On
Versions: 1 2 3 4 5 6 7 8 9 10 11 12 13 14 15 16 17 18 19 20 21 22 23 24 25 26 27 28 29 30 31 32 33 34 35 36 37 38 39 40 41 42 43 44 45 46 47 48 49 50
000
ASUS43 KLMK 202302
RWRKY
KENTUCKY REGIONAL WEATHER ROUNDUP
NATIONAL WEATHER SERVICE LOUISVILLE KY
600 PM EST TUE FEB 20 2018

NOTE "FAIR" INDICATES FEW OR NO CLOUDS BELOW 12,000 FEET
WITH NO SIGNIFICANT WEATHER AND/OR OBSTRUCTIONS TO VISIBILITY.

KYZ001>023-026-027-061>063-070>075-210000-
WESTERN AND SOUTH CENTRAL KENTUCKY

CITY           SKY/WX    TMP DP  RH WIND       PRES   REMARKS
PADUCAH        FAIR      74  59  59 S16G25    30.04S
HENDERSON      MOCLDY    72  58  61 S15       30.08S
OWENSBORO      FAIR      72  59  63 S15G26    30.11R
HOPKINSVILLE   MOCLDY    75  58  57 S16G30    30.12R
BOWLING GREEN  FAIR      76  58  53 S13G24    30.15S
GLASGOW        NOT AVBL
$$

KYZ024-025-028>034-038-045-046-053-210000-
NORTH CENTRAL KENTUCKY

CITY           SKY/WX    TMP DP  RH WIND       PRES   REMARKS
LOUISVILLE/SDF CLOUDY    76  56  49 SW16G33   30.13R
LOUISVILLE/LOU MOCLDY    76  57  51 SW22G31   30.13R
FORT KNOX      FAIR      74  57  55 S9G24     30.15R
$$

KYZ035>037-039>044-047>052-055>060-089>105-210000-
NORTHEAST KENTUCKY

CITY           SKY/WX    TMP DP  RH WIND       PRES   REMARKS
LEXINGTON      MOCLDY    75  56  51 S14       30.18R
COVINGTON      MOCLDY    75  55  49 SW20G33   30.12R
FRANKFORT      FAIR      76  54  46 SW17G25   30.15R
$$

KYZ054-064>069-076>088-106>120-210000-
SOUTHEAST KENTUCKY

CITY           SKY/WX    TMP DP  RH WIND       PRES   REMARKS
JACKSON        FAIR      74  51  44 VRB6      30.25R
LONDON         MOCLDY    73  54  51 SW7       30.26R
SOMERSET       NOT AVBL
MIDDLESBORO    FAIR      73  54  50 SW3       30.29R
MONTICELLO     NOT AVBL
$$




USA.gov is the U.S. government's official web portal to all federal, state and local government web resources and services.